User: anonymous   Login
Location: Ferintosh
(52.7647°N, 112.9692°W)
Time: 12:17:51
(UTC+00:00)
Language:

Vanguard 2 Rocket - Orbit

View from above orbital plane
View from above orbital plane
View from above satellite
View from above satellite

Ground track
Ground track

The orbit data is extracted from the following two-line orbital elements,

1    12U 59001B   24139.08808416  .00004386  00000-0  26290-2 0  9994
2    12  32.9005  20.3869 1654026  45.2235 327.1567 11.46339048686568
Epoch (UTC): 18 May 2024 02:06:50
Eccentricity: 0.1654026
inclination: 32.9005°
perigee height: 556 km
apogee height: 3304 km
right ascension of ascending node: 20.3869°
argument of perigee: 45.2235°
revolutions per day: 11.46339048
mean anomaly at epoch: 327.1567°
orbit number at epoch: 68656

The dashed part of the orbit path shows where the satellite is in the earth's shadow,  

DLR